This is the latest recevied weather packets stored in our database for station/object AI5KP-13. If no packets are shown the sender has not sent any weather packets the latest 10 day(s).
| Time | Temp. | Humidity | Pressure | Rain* | Wind** | Luminosity | Snow |
|---|---|---|---|---|---|---|---|
| 1777986764 | 17.78° C | 90% | 1004.8 hPa | 0 mm | - | 58 W/m² | - |
| 1777986461 | 17.78° C | 91% | 1004.9 hPa | 0 mm | - | 55 W/m² | - |
| 1777986160 | 17.78° C | 91% | 1004.9 hPa | 0 mm | - | 55 W/m² | - |
| 1777985856 | 17.78° C | 91% | 1004.9 hPa | 0 mm | - | 48 W/m² | - |
| 1777985554 | 17.22° C | 91% | 1004.6 hPa | 0 mm | - | 50 W/m² | - |
| 1777985250 | 17.22° C | 91% | 1004.9 hPa | 0 mm | - | 53 W/m² | - |
| 1777984947 | 17.22° C | 92% | 1004.9 hPa | 0 mm | - | 46 W/m² | - |
| 1777984643 | 17.22° C | 92% | 1005.1 hPa | 0 mm | - | 53 W/m² | - |
| 1777984340 | 16.67° C | 92% | 1004.9 hPa | 0 mm | - | 53 W/m² | - |
| 1777984036 | 16.67° C | 92% | 1004.8 hPa | 0 mm | - | 37 W/m² | - |
| 1777983734 | 16.67° C | 92% | 1005 hPa | 0 mm | - | 23 W/m² | - |
| 1777983430 | 16.67° C | 92% | 1005 hPa | 0 mm | - | 13 W/m² | - |
| 1777983127 | 16.67° C | 92% | 1005 hPa | 0 mm | - | 12 W/m² | - |
| 1777982823 | 16.67° C | 92% | 1004.9 hPa | 0 mm | - | 8 W/m² | - |
| 1777982519 | 16.67° C | 92% | 1005 hPa | 0 mm | - | 8 W/m² | - |
| 1777982212 | 16.67° C | 92% | 1005 hPa | 0 mm | - | 5 W/m² | - |
| 1777981911 | 16.67° C | 92% | 1005 hPa | 0 mm | - | 3 W/m² | - |
| 1777981608 | 16.67° C | 93% | 1004.8 hPa | 0 mm | - | 3 W/m² | - |
| 1777981304 | 16.67° C | 93% | 1004.9 hPa | 0 mm | - | 3 W/m² | - |
| 1777981000 | 16.67° C | 93% | 1004.8 hPa | 0 mm | - | 2 W/m² | - |
| 1777980697 | 16.67° C | 93% | 1004.8 hPa | 0 mm | - | 1 W/m² | - |
| 1777980393 | 16.67° C | 93% | 1004.9 hPa | 0 mm | - | 0 W/m² | - |
| 1777980092 | 16.67° C | 93% | 1004.9 hPa | 0 mm | - | 0 W/m² | - |
| 1777979791 | 16.67° C | 93% | 1004.8 hPa | 0 mm | - | 0 W/m² | - |
| 1777979487 | 16.67° C | 93% | 1004.8 hPa | 0 mm | - | 0 W/m² | - |
* Rain latest hour (hover to see other rain measurements)
** Current wind speed in m/s (hover to see current wind gust speed)